Weather History for Charlottetown, PE

Change the Weather History Date:

Saturday, October 22, 2011

  Actual Average Record
Temperature  
Mean Temperature 52 °F -  
Max Temperature 59 °F 46 °F 68 °F (2007)
Min Temperature 45 °F 32 °F 30 °F (1996)
Degree Days  
Heating Degree Days 13    
Growing Degree Days 2 (Base 50)    
Moisture  
Dew Point 47 °F    
Average Humidity 82    
Maximum Humidity 100    
Minimum Humidity 57    
Precipitation  
Precipitation 0.00 in 0.16 in - ()
Sea Level Pressure  
Sea Level Pressure 29.94 in    
Wind  
Wind Speed 6 mph ()    
Max Wind Speed 9 mph    
Max Gust Speed -    
Visibility 15.0 miles    
Events      
Averages and records for this station are not official NWS values.
T = Trace of Precipitation, MM = Missing Value Source: Averaged Metar Reports

Daily Weather History Graph

Daily Weather History Graph

Search for Another Location

Airport:

Trip Planner

Search our weather history database for the weather conditions in past years. The results will help you decide how hot, cold, wet, or windy it might be!

Date:

Astronomy

Oct. 22, 2011 Rise Set
Actual Time 7:38 AM ADT 6:14 PM ADT
Civil Twilight 7:08 AM ADT 6:44 PM ADT
Nautical Twilight 6:33 AM ADT 7:19 PM ADT
Astronomical Twilight 5:58 AM ADT 7:54 PM ADT
Moon 2:14 AM ADT 3:43 PM ADT
Length of Visible Light 11h 36m
Length of Day
10h 35m
Waning Crescent, 24% of the Moon is Illuminated
Oct 22
Waning Crescent
Oct 26
New
Nov 2
First Quarter
Nov 10
Full
Nov 18
Last Quarter

Hourly Weather History & Observations

Time (ADT) Temp. Windchill Dew Point Humidity Pressure Visibility Wind Dir Wind Speed Gust Speed Precip Events Conditions
12:00 AM 51.8 °F - 48.2 °F 88% 29.84 in 15.0 mi WSW 8.1 mph - N/A   Partly Cloudy
1:00 AM 51.8 °F - 48.2 °F 88% 29.85 in 15.0 mi WSW 8.1 mph - N/A   Clear
2:00 AM 50.0 °F - 48.2 °F 94% 29.86 in 15.0 mi WSW 6.9 mph - N/A   Clear
3:00 AM 49 °F - 46 °F 87% 29.88 in 15 mi WSW 5.8 mph - -  
3:00 AM 48.2 °F - 46.4 °F 93% 29.88 in 15.0 mi West 5.8 mph - N/A   Clear
4:00 AM 48.2 °F - 46.4 °F 93% 29.89 in 15.0 mi WSW 4.6 mph - N/A   Clear
6:00 AM 48.2 °F - 46.4 °F 93% 29.91 in 15.0 mi WSW 6.9 mph - N/A   Clear
7:00 AM 46.4 °F 45.2 °F 46.4 °F 100% 29.92 in 15.0 mi WSW 3.5 mph - N/A   Partly Cloudy
8:00 AM 46.4 °F 45.2 °F 44.6 °F 93% 29.94 in 15.0 mi West 3.5 mph - N/A   Partly Cloudy
9:00 AM 50 °F - 46 °F 81% 29.97 in 15 mi WSW 5.8 mph - -   Scattered Clouds
9:00 AM 50.0 °F - 46.4 °F 87% 29.97 in 15.0 mi WSW 5.8 mph - N/A   Partly Cloudy
10:00 AM 51.8 °F - 46.4 °F 82% 29.97 in 15.0 mi WSW 5.8 mph - N/A   Partly Cloudy
11:00 AM 53.6 °F - 46.4 °F 77% 29.98 in 15.0 mi West 8.1 mph - N/A   Partly Cloudy
12:00 PM 57.2 °F - 46.4 °F 67% 29.98 in 15.0 mi West 4.6 mph - N/A   Partly Cloudy
1:00 PM 57.2 °F - 46.4 °F 67% 29.96 in 15.0 mi West 9.2 mph - N/A   Scattered Clouds
3:00 PM 57 °F - 46 °F 57% 29.95 in 15 mi WSW 8.1 mph - -   Partly Cloudy
3:00 PM 57.2 °F - 46.4 °F 67% 29.95 in 15.0 mi WSW 8.1 mph - N/A   Scattered Clouds
4:00 PM 59.0 °F - 44.6 °F 59% 29.95 in 15.0 mi SW 9.2 mph - N/A   Scattered Clouds
5:00 PM 55.4 °F - 46.4 °F 72% 29.95 in 15.0 mi South 9.2 mph - N/A   Scattered Clouds
6:00 PM 53.6 °F - 46.4 °F 77% 29.95 in 15.0 mi SSW 5.8 mph - N/A   Mostly Cloudy
7:00 PM 53.6 °F - 46.4 °F 77% 29.96 in 15.0 mi Calm Calm - N/A   Mostly Cloudy
8:00 PM 53.6 °F - 48.2 °F 82% 29.96 in 15.0 mi South 4.6 mph - N/A   Overcast
9:00 PM 53 °F - 49 °F 81% 29.97 in 15 mi SSW 4.6 mph - -   Overcast
9:00 PM 53.6 °F - 48.2 °F 82% 29.97 in 15.0 mi SSW 4.6 mph - N/A   Overcast
10:00 PM 53.6 °F - 50.0 °F 88% 29.97 in 15.0 mi South 4.6 mph - N/A   Overcast
11:00 PM 53.6 °F - 51.8 °F 94% 29.96 in 15.0 mi SSW 3.5 mph - N/A   Overcast